Location: *
(50.0228°S, 177.2688°W)
Time: 02:53:32
(UTC+00:00)

USA 229 DEB - Pass Details

Date: 07 April 2020
Orbit: 985 x 1227 km, 63.4° (Epoch: 21 May)

Event Time Altitude Azimuth Distance (km) Brightness Sun altitude
Rises 08:39:21 0° 308° (NW) 4,129 7.0 -31.4°
Reaches altitude 10° 08:42:10 10° 306° (NW) 3,150 6.4 -31.8°
Maximum altitude 08:49:44 69° 222° (SW) 1,250 4.0 -32.8°
Enters shadow 08:52:48 38° 150° (SSE) 1,702 4.7 -33.3°
